"Pseudo-MPEC" for A10SuBN

Created 2023 Mar 22 15:22:02 UT using Find_Orb

Click here for an explanation of pseudo-MPECs

 
 Astrometry: 
     A10SuBN* C2023 02 01^31_\YrBoIwWeE1)IW^A^A%.ka]xFd6ZuvV/hxX8O5#uG`xXE?p@W68
     A10SuBN  C2023 02 01D$e`;d`TtUP71`YcrK9.)h/ifgh_].)tC18^7lXGCIX])vUT5=]WW68
     A10SuBN  C2023 02 01LMCm;(Q$eGxcX6GJ(Yq%))2%L@nC$%p+Hc*n$J;VgNlhxOGI.PRKW68
     A10SuBN  C2023 02 012Q]Zt;`DbbGVYKL58(R1M!?X-DN?O1T$nHZV0[WA:(m)@GeyvNTpW68
     A10SuBN |C2023 02 03`an4[D5Z]J;m5vK0jSWMN$9NW5V1_rT+-R+vTeYXMmVx#+ZN38gb807
     A10SuBN |C2023 02 03IVZp5-$@:V%7djpBKwj'OG\[\0ntQ0Da)XWre[8ZkqqUaAx2?hnn807
     A10SuBN |C2023 02 03iP)K:RkbDREVd=BE/V7MlBHD.gf6V,?'Fq'74%DY\.QX-`hDg;kc807
     A10SuBN 1C2023 02 03ciq+VtAfZ:G'fOrT.3D$dV2%D0F9U/WEbUT]A5whp=qhqZ__Xc#5Q62
     A10SuBN 1C2023 02 03O(3:(Mo7*nrFI)DoZgex8.oLm.+02@::-TCZ#4r,dugGt6(aZSd)Q62
     A10SuBN 1C2023 02 03181AJ+58iaMmvE?\0:#W4:9OpM)ZWcEIN@sYV7KESRl)x1?.C?n7Q62
     A10SuBN 2C2023 02 053D-`'Aqjf@r,9Qb+Vb^/.g-t,o)hn@!l'MH3q4Tium@]RQy6`bWGW85
     A10SuBN 2C2023 02 05\p6G^^B:QIV$rCv`we[E`swkL4+4ERpc,e:k-TvVd(.Pi+p$*0w(W85
     A10SuBN 2C2023 02 05!Jp,^;8/%n;j.`Q=\-'7jigYO7]YG5a_1bwM,,HvWbMty4U6$EW7W85
     A10SuBN 2C2023 02 05toO-dos#Z[T-6a9^=i;YiX+EncjL!APK7nt0KUF%b\@V@]E\qKO!W85
     A10SuBN |C2023 02 12pDd:J?2ko^\=2GhgmH*Oh:o_+wU1LV[JAPt`b?0V'3#JTJr8S:Rt807
     A10SuBN |C2023 02 12l.qGsx$Ty*Q_GpIGQZ]!i-M'`gZcbLK3sxeQRhP7?j8im_pxt-yc807
     A10SuBN |C2023 02 12;LjUn$rVPwi$uU/(w`?p*W_wp/vj=OS2VxAJ:Z-7#e32t;/44YE?807
     A10SuBN KC2023 02 12po(F`yOme_k-cHGCU8!t%3ntw)bV!-OKW2K=e!dQ`0^JX_GgQHa1L87
     A10SuBN KC2023 02 126U+g8nwnU'?29k)$ln/,$GV6`XW8IM.]@V[4fbSRUx\3D*CQbjaxL87
     A10SuBN KC2023 02 12Q?UCFMFTTTt15bQwp)Rne?9Ibj1-+c^Kr[Ky'AT[u(F0kwaa'mUFL87
     A10SuBN KC2023 02 173HpOl[\xy@IqUtq\o%rk-URpq9QIwQqG'd]=Astrometryb\^eS9L87
     A10SuBN KC2023 02 179$P.)HSk@/C6Z]gx`?*1@eu#(79fGZ;Kd$/2WR@wCT40St)],JH[L87
     A10SuBN KC2023 02 17'PsuqOB+EGoIV[Z03U.V/vAq$SW(U80`e_1;':Nec_wIg,1xp.s2L87
     A10SuBN KC2023 02 19Yw@6u(j[nOlcVb#^'@C'=GI$XGtf@`E=5C37f^OrF,1(L.cCU2G4X03
     A10SuBN KC2023 02 19YATS\TKbina\VMR:VK:b6v4D`2LYh`UB97vdy@3r'IN/!B?6(3paX03
     A10SuBN KC2023 02 19M(;y)_qKS.=av*YWSaf/],5th,a^m4A.3]7MTrw#n(7L5RlD6RZ0X03
     A10SuBN KC2023 02 19@@qY3_uL]fy7\Y-UWdI_!OtTB?jtSTos%N`dN5jeUjV7IclZMp?)X03
     A10SuBN 4C2023 02 21En7gg[@i1mn9-2Av,QFhp%5*,+JiPr_;4Y*yx83dYcg?:3[\]:qhW88
     A10SuBN 4C2023 02 21Fl6SdpKI29(8.oPuYc8(,4=hKW:m#p_m#Id(LPA.FYpocE)L]).iW88
     A10SuBN %C2023 02 21qK2C\L6:vP-SK(UJ4)_qm*sh^(1U-CRjIC^FskFLq(,LRu(6Z]dTW88
     A10SuBN %C2023 02 21V,88H;TD?w(?JM?QxG]K2-6laredacted;M1)=.v50PQetJbVig)W88
     A10SuBN KC2023 02 24.(UU-Uh:EZLkr0c,xk\)V0SrfB_IP#+,Y8;G-;[/g'[wj;]B,sLbI47
     A10SuBN KC2023 02 24)%[I@sRx$8WqTX$I9g6thd=KaJE3fNl!xnBK!t)9QGcXJVEaQ!);I47
     A10SuBN  C2023 02 25?TCyiclick/(61Z*-+_'4S2iTuG%QG@(HIxA#TdWDt9Z_slXXMF1W68
     A10SuBN  C2023 02 25_5?47De^H`g(ETlVR@of%h_KF=xF(7\GKsFk1dmqRmSQ!F-.@VNDW68
     A10SuBN  C2023 02 253KD*$jf;4Ay42dxY\*L5['5B50xd0vQ[t\_eHUherek6vEJb/#AEW68
     A10SuBN  C2023 02 25-m5Ct$ed4(D:YZ5osTrNfory.$x3fb6--wTv@)!`miXuhrTHaJuoW68
     A10SuBN KC2023 02 26.13563710 49 50.707-49 33 53.02   ~2Q47 20.0 GXNEOCPY00
     A10SuBN KC2023 02 26.14230010 49 50.434-49 33 54.46   ~2Q47 19.2 GXNEOCPY00
     A10SuBN KC2023 02 26.14873510 49 50.165-49 33 54.66   ~2Q47 19.1 GXNEOCPY00
     A10SuBN 3C2023 02 26B$I*(GqIcaVK_1G%:H?alw\ZJj\enW[j5^Or+FAI.wtGbALDFc6CW88
     A10SuBN 3C2023 02 26yJmD,Yl=n7SRfK7fF`NCZu,bH6EY`9#FLJctapLMucmA$B?^=%:?W88
     A10SuBN KC2023 02 27g:Am*gMDZ*j,T.;$,BTI6OM2nfOsIauD.%15$k@nQN1D[=f5gVnBX03
     A10SuBN KC2023 02 273ZL`;OGjs0I+EMP?B(nxm8Y1XHRigFeT[7:Pf@:LiEK=Ok_19]%+X03
     A10SuBN KC2023 02 27qj=sB`:BLn#c/S*%sDQ=CZrGs^`0cE'-cUOIoqudO9M(CRVA]sd9X03
     A10SuBN  C2023 02 28-6;tU67!rDdMsgBEc`tVgVysft09^JFt?LItc`u[_9b2'^WDy+fSM28
     A10SuBN  C2023 02 28:(MJB1Nh_m;.hXI=m.WU@^mR(l]\3S5M\bQ$MFfMau;sxY@,juNCM28
     A10SuBN KC2023 02 28X05explanationplHI[u+CMcJ-06ZKePEcceoS;v[^.EMX7v(LKgX02
     A10SuBN KC2023 02 28oR+s_;/tfuJe^3+.@^!8FFe%7;-cgN2sY+YNn-oCWZ\D?jd?(?WNX02
     A10SuBN KC2023 03 11?wS08:MYi_SDfQlsF6*ZL(pFsxe+L^(ZnttuT=4-@2sK$FqnPQ@XI47
     A10SuBN KC2023 03 11QjX%hw0o[8O)2#$fAlM;$Ff\F]+vhK.tp@y^=/Sx!\[g`9.[+[vcI47
     A10SuBN "C2023 03 11\F(yQYAVA;Lb:e%#rXXUmFo-TPliV%BVbu-u=XjXLU^*Mpb\c.QJW88
     A10SuBN "C2023 03 11[=`;Me])'2j)-?;Qwg`5Kh_4JIvVsmkjS-=rD1jV:RuU)MBDn2\6W88
     A10SuBN KC2023 03 14%2lx%8C2E`+Ca_T+;n]kIArFehnwjP3oZHBrkTq+9:FRIRH=imA0X02
     A10SuBN KC2023 03 14?gu-[LRe:G'tI#FnX=K1XZRRvMs,l`\yu.Q:HSuvVyBK19%6K%n_X02
     A10SuBN KC2023 03 142N7.!d:mJPGy9xm;+i8bh4gSNliSq^l)2*74H,[s\(Lu[@k@c)(+X02
     A10SuBN  C2023 03 17qI^y;M,3eypR]b@+n!X*^+Z?%K9h.vs%E1%a81N$dDVG,vSTQe_5W68
     A10SuBN  C2023 03 17J?.ODHqRDD1CU6*n2L@1\h=2uLc`1S1*a:(cfZ-0kQ@\5h8H:XYPW68
     A10SuBN  C2023 03 17PbuVK6AX!K@;S)'gklYv2o1T-3HeFx@w`;-e+OD,T.G]Ol)bhoWTW68
     A10SuBN  C2023 03 17Igq^4o$e/?rO%GMekgdl%m9.V'$3[MR#y67nnVXg(al*4X`Yy$%$W68
     A10SuBN hC2023 03 17q3MFk;[rG^q7O@+_xrh_eLMw2`v6e!-^h5^3*?+QX#haCMGAEiZdQ62
     A10SuBN hC2023 03 17;a;MG8=fm$J59.HC(SN`VpGSCHNC7.aRI#Ypov]!aQnpylR,@8=7Q62
     A10SuBN hC2023 03 179p4by1S-M,1Pe'y;=l1PE#(+xtHigs#)ri]YijF.LEJD`A$R-TQdQ62
     A10SuBN rC2023 03 186\bd_QRX/[*xrcn;.:JZ_NXyp]+W7\A(*lW5x5D4?v,]jk^L%wT]Q62
     A10SuBN rC2023 03 18v$@'[2c#n\a`9v9)AMq3_5*;/xJGtNAV0SsgG/NbIJU,E(.=onY_Q62
     A10SuBN 1C2023 03 19R3b1Jc`S*p=8i^9y2!6V.\8pSbfGqy!3ev%YuPd4X=F3s6D[L6R%Q62
     A10SuBN 1C2023 03 19xpkEAE!T0'P5:W0jON$aF$O?nM!AcSb#FaEkbyUCPj]aT'j\_,(=Q62
     A10SuBN 1C2023 03 195H2bIS%V-gYS)XxEXSibw#+bGhGSpeBw*A*0w7Q1E4iCZGQ#cN]fQ62

Station data:
(807) Cerro Tololo Observatory, La Serena  (S30.169133 W70.805900)  Chile.
   Observer R. Holmes. 0.61-m f/6.5 astrograph + CCD.
(I47) Pierre Auger Observatory, Malargüe  (S35.495440 W69.449700)  Argentina.
    Observer M. Mašek. 0.3-m f/6.8 reflector + CCD.
(L87) Moonbase South Observatory, Hakos  (S23.236420 E16.361890)  Namibia.
   Observer G. Duszanowicz. 0.36-m f/7.7 reflector + CCD.
(M28) Lesedi Telescope-SAAO Observatory, Sutherland  (S32.379790 E20.810640)
   South Africa.
(Q62) iTelescope Observatory, Siding Spring  (S31.273286 E149.064420)
   Australia/NSW.  Observer H. Sato. 0.51-m f/6.8 astrograph + CCD + f/4.5
   focal reducer0.43-m f/6.8 astrograph + CCD + focal reducer0.43-m f/6.8
   astrograph + CCD0.10-m f/5 astrograph + CCD0.127-m f/5.6 refractor +
   CCD0.50-m f/6.8 reflector + CCD0.30-m f/9 reflector + CCD.
(W68) ATLAS Chile, Rio Hurtado  (S30.471010 W70.764980)  Chile.
(W85) Cerro Tololo-LCO A  (S30.167404 W70.804810)  Chile.  Observers T.
   Lister, S. Greenstreet, E. Gomez. Measurer T. Lister. 1.0-m f/8
   Ritchey-Chrétien + CCD.
(W88) Slooh.com Chile Observatory, La Dehesa  (S33.269126 W70.534300)  Chile.
    Observers B. Lütkenhöner, G. Gašparović, K. Dankov, N. Paul. Measurers B.
   Lütkenhöner, G. Gašparović, Y. Chen, G. Y. Gasparovic, M.
   Kumrucu-Lohmiller, N. Paul, R. W. Anderson. 0.43-m f/6.8 Corrected Dall-
   Kirkham + CCD0.35-m f/11.0 Schmidt-Cassegrain + CCD.
(X02) Telescope Live, El Sauce  (S30.470666 W70.764830)  Chile.  Observers E.
   Guido, M. Rocchetto, E. Bryssinck, M. Fulle, G. Milani, C. Nassef, G.
   Savini, A. Valvasori. Measurer E. Guido. 0.6-m f/6.5 astrograph + CCD.
(X03) Observatoire SADR, Poroto  (S30.533914 W70.796390)  Chile.  Observers
   J. L. Virlichie, P. Traverse. 0.35-m f/4.7 Newtonian reflector + CCD.
(Y00) SONEAR Observatory, Oliveira  (S20.715080 W44.784960)  Brazil.
   Observers C. Jacques, E. Pimentel, J. Barros. Measurer C. Jacques. 0.45-m
   f/2.9 astrograph + CCD.

Orbital elements:  A10SuBN
   Perihelion 2024 Nov 16.78865 +/- 0.27 TT = 18:55:39 (JD 2460631.28865)
Epoch 2023 Mar 19.0 TT = JDT 2460022.5                           AutoNEOCP
M 359.99709854 +/- 0.0035           (J2000 ecliptic)
n   0.00000476 +/- 5.88e-6          Peri.  357.44269 +/- 0.006
a3497.05851 +/- 2188                Node   301.03128 +/- 0.012
e   0.9993227 +/- 0.000528          Incl.   48.31745 +/- 0.0033
P 206801                   H 10.91  G  0.15   U  4.7
q 2.36837873 +/- 0.00102    Q 6991.74865 +/- 4493
67 of 68 observations 2023 Feb. 1-Mar. 19; mean residual 0".41
Residuals in arcseconds: 
230201 W68  1.1+  .10+    230219 X03  .14+  .21+    230228 M28  .94+  .51+    
230201 W68  .52-  .59-    230219 X03  .20-  .13-    230228 X02  .49-  .10+    
230201 W68  .65+  .02-    230219 X03  .34-  .03+    230228 X02  .26-  .29-    
230201 W68  .07-  1.3+    230219 X03  .47-  .39+    230311 I47  .65+  .01+    
230203 807  .37-  .14-    230221 W88  .67-  .18-    230311 I47( .69-  1.8+)   
230203 807  .11-  .07+    230221 W88  .49-  .41+    230311 W88  .66+  .15+    
230203 807  .04-  .02-    230221 W88  .57+  .12-    230311 W88  .52+  .06+    
230203 Q62  .08+  .13+    230221 W88  .93+  .90-    230314 X02  .21-  .30+    
230203 Q62  .09+  .02+    230224 I47  1.2+  .05-    230314 X02  .37-  .23-    
230203 Q62  .14+  .19+    230224 I47  .24-  .01-    230314 X02  .15-  .07+    
230205 W85  .15-  .28-    230225 W68  .16+  .76-    230317 W68  .19-  .26+    
230205 W85  .22-  .19-    230225 W68  .12-  .49+    230317 W68  .79-  .45-    
230205 W85  .20-  .10-    230225 W68  .04-  .27+    230317 W68  .17-  .92+    
230205 W85  .17-  .11-    230225 W68  .09+  1.1-    230317 W68  .30+  .20-    
230212 807  .26+  .15+    230226 Y00  .52-  .07+    230317 Q62  .22-  .53-    
230212 807  .15+  .22+    230226 Y00  .27-  .66-    230317 Q62  .26+  .33-    
230212 807  .14-  .11-    230226 Y00  .07-  .17-    230317 Q62  .41-  .42-    
230212 L87  .24-  .42-    230226 W88  .20+  .29+    230318 Q62  .26-  .01+    
230212 L87  .23-  .31-    230226 W88  .41-  .85+    230318 Q62  .12+  .25-    
230212 L87  .15-  .20-    230227 X03  .28-  .00     230319 Q62  .02-  .06+    
230217 L87  .32+  .13+    230227 X03  .35-  .24+    230319 Q62  .06+  .16+    
230217 L87  .14-  .04-    230227 X03  .23-  .07+    230319 Q62  .04+  .16+    
